Location: Newark
(25.4297°S, 49.2719°W)
Time: 06:09:24
(UTC+00:00)

Vanguard 1 Rocket - Pass Details

Date: 20 November 2019
Orbit: 650 x 4226 km, 34.3° (Epoch: 05 December)

Event Time Altitude Azimuth Distance (km) Brightness Sun altitude
Rises 22:32:43 0° 247° (WSW) 8,481 14.6 -10.4°
Reaches altitude 10° 22:38:47 10° 247° (WSW) 7,412 13.6 -11.6°
Maximum altitude 23:04:00 89° 332° (NNW) 3,136 10.0 -16.5°
Enters shadow 23:14:55 23° 62° (ENE) 3,854 9.9 -18.5°
Drops below altitude 10° 23:17:53 10° 62° (ENE) 4,484 - -19.1°
Sets 23:20:34 0° 62° (ENE) 5,136 - -19.6°
